Content
SEND FEEDBACK

Daily
Averages
Monthly
Summary
Indonesia

BAMBOEAPOES, INDONESIA


Home > Asia > Indonesia
Elevation: 98 feet     Latitude: 06 18S     Longitude: 106 54E

WEATHER
 
SELECT A DAY
Number of Records: 220,694;   Date Range: 9/17/97 - 4/15/14
 
SHARE

PRINT THIS DATA

[ ← Previous Day ]
WEATHER ALMANAC - JANUARY 24, 2013
[ Next Day → ]
[ °C ]   °F
Weather ElementAverageHighLow
Temperature79.5 °F84.2 °F (12:30 pm)75.2 °F (12:30 am)
Dewpoint75.1 °F78 °F (7:00 pm)73.4 °F (12:30 am)
Humidity86.5 %100 % (6:30 am)74 % (12:30 pm)
Barometer29.34 in29.92 in (8:00 am) (7:00 pm)
Wind Speed8.4 mph18.4 mph (10:30 am)
Wind Gust20.7 mph (12:30 pm)
Weather ElementAverage
Visibility4.6 mi
Wind DirectionW (273.8 °)

Weather ElementTotal
Precipitation---
Cooling Degree Days14.7 (Base 65)
Growing Degree Days29.7 (Base 50)
Averaged from 52 records on January 24, 2013
WEATHER CONDITIONS BREAKOUT
WIND DIRECTION BREAKOUT
WEATHER BY HOUR - JANUARY 24, 2013
[ °C ]   °F
Local TimeTemperatureDewpointHumidityBarometerVisibilityWind DirectionWind SpeedGust SpeedPrecipitationEventsConditions
12:30 AM75.2 °F73.4 °F94 %29.86 in3.1 miWSW (250°)8.1 mphScattered Clouds
1:00 AM76.0 °F74.0 °F92 %29.90 in6.0 miWSW (250°)6.9 mphOvercast
1:30 AM77.0 °F73.4 °F89 %29.83 in4.3 miWSW (240°)8.1 mphPartly Cloudy
2:00 AM75.2 °F73.4 °F94 %29.83 in4.3 miWSW (250°)8.1 mphPartly Cloudy
2:30 AM75.2 °F73.4 °F94 %29.83 in4.3 miWest (270°)4.6 mphPartly Cloudy
3:00 AM77.0 °F73.4 °F89 %29.83 in3.1 miWest (280°)5.8 mphPartly Cloudy
3:30 AM77.0 °F73.4 °F89 %29.86 in4.3 miWNW (290°)5.8 mphPartly Cloudy
4:00 AM76.0 °F74.0 °F93 %29.84 in5.0 miWest (280°)5.8 mphHaze
4:00 AM75.2 °F73.4 °F94 %29.83 in3.1 miWSW (250°)5.8 mphPartly Cloudy
4:30 AM75.2 °F73.4 °F94 %29.86 in5.6 miWNW (290°)3.5 mphOvercast
5:00 AM75.2 °F73.4 °F94 %29.86 in3.7 miWNW (300°)2.3 mphMostly Cloudy
5:30 AM75.2 °F73.4 °F94 %29.86 in3.1 miWest (270°)4.6 mphPartly Cloudy
6:00 AM75.2 °F73.4 °F94 %29.86 in2.8 miWest (270°)4.6 mphPartly Cloudy
6:30 AM75.2 °F75.2 °F100 %29.86 inWest (270°)4.6 mphPartly Cloudy
7:00 AM77.0 °F75.0 °F92 %29.90 in5.0 miWSW (250°)5.8 mphHaze
7:00 AM77.0 °F75.2 °F94 %29.89 in4.3 miWest (270°)5.8 mphPartly Cloudy
7:30 AM78.8 °F75.2 °F89 %29.89 in3.1 miWest (270°)6.9 mphPartly Cloudy
8:00 AM78.8 °F75.2 °F89 %29.92 in3.1 miWest (280°)9.2 mphMostly Cloudy
8:30 AM78.8 °F75.2 °F89 %29.92 in3.7 miNW (310°)8.1 mphRainLight Rain
9:00 AM80.6 °F75.2 °F84 %29.92 in3.7 miWNW (290°)9.2 mphMostly Cloudy
9:30 AM82.4 °F77.0 °F84 %29.92 in4.3 miNW (310°)12.7 mphMostly Cloudy
10:00 AM83.0 °F77.0 °F77 %29.91 in6.0 miWNW (300°)17.3 mphPartly Cloudy
10:00 AM82.4 °F75.2 °F79 %29.89 in4.3 miNW (310°)16.1 mphScattered Clouds
10:30 AM82.4 °F77.0 °F84 %29.89 in4.3 miWNW (300°)18.4 mphScattered Clouds
11:00 AM82.4 °F75.2 °F79 %29.89 in5.0 miNW (320°)17.3 mphScattered Clouds
11:30 AM82.4 °F75.2 °F79 %29.86 in5.0 miNW (310°)17.3 mphMostly Cloudy
12:00 PM82.4 °F75.2 °F79 %29.86 in5.6 miNW (320°)16.1 mphScattered Clouds
12:30 PM84.2 °F75.2 °F74 %29.86 in5.6 miNNW (340°)9.2 mph20.7 mphScattered Clouds
1:00 PM84.0 °F77.0 °F74 %29.85 in6.0 miNW (320°)16.1 mphPartly Cloudy
1:00 PM84.2 °F75.2 °F74 %29.83 in5.6 miNNW (340°)15.0 mphMostly Cloudy
1:30 PM82.4 °F75.2 °F79 %29.83 in5.6 miNW (320°)17.3 mphMostly Cloudy
2:00 PM82.4 °F75.2 °F79 %29.83 in5.6 miNNW (340°)13.8 mphMostly Cloudy
2:30 PM82.4 °F77.0 °F84 %29.80 in5.6 miNNW (330°)13.8 mphScattered Clouds
3:00 PM82.4 °F75.2 °F79 %29.80 in5.6 miNW (320°)10.4 mphMostly Cloudy
3:30 PM82.4 °F77.0 °F84 %29.80 in5.6 miNW (320°)10.4 mphMostly Cloudy
4:00 PM83.0 °F77.0 °F77 %29.79 in6.0 miNNW (330°)9.2 mphPartly Cloudy
4:00 PM82.4 °F77.0 °F84 %29.80 in5.6 miNW (320°)9.2 mphScattered Clouds
4:30 PM82.4 °F77.0 °F84 %29.80 in5.6 miNNW (330°)8.1 mphScattered Clouds
5:00 PM82.4 °F75.2 °F79 %29.80 in5.6 miNNW (340°)8.1 mphScattered Clouds
5:30 PM82.4 °F75.2 °F79 %29.80 in5.6 miNNW (330°)5.8 mphScattered Clouds
6:00 PM82.4 °F77.0 °F84 %29.80 in5.0 miVariable2.3 mphPartly Cloudy
6:30 PM80.6 °F77.0 °F89 %29.83 in5.0 miNorth (10°)2.3 mphPartly Cloudy
7:00 PM81.0 °F78.0 °F86 %29.85 in6.0 miNorth (350°)4.6 mphPartly Cloudy
7:00 PM80.6 °F77.0 °F89 %29.83 in5.0 miNW (320°)4.6 mphScattered Clouds
7:30 PM80.6 °F77.0 °F89 %29.86 in3.1 miNorth (10°)2.3 mphScattered Clouds
8:30 PM80.6 °F75.2 °F84 %29.89 in3.1 miWNW (300°)12.7 mphRainRain
9:00 PM77.0 °F73.4 °F89 %29.89 in2.5 miVariable3.5 mphRainLight Rain
9:30 PM77.0 °F73.4 °F89 %29.89 in2.5 miWest (280°)5.8 mphMostly Cloudy
10:00 PM76.0 °F74.0 °F92 %29.90 in2.0 miWSW (240°)2.3 mphRainLight Rain
10:30 PM77.0 °F73.4 °F89 %West (270°)2.3 mphRainLight Rain
11:00 PM77.0 °F75.2 °F94 %29.89 in6.2 miWest (280°)3.5 mphScattered Clouds
11:30 PM77.0 °F75.2 °F94 %29.89 in6.2 miWNW (300°)3.5 mphOvercast
Hourly data recorded from WIII, located 20.46 miles away from Bamboeapoes, Indonesia







STORIES FROM OUR PARTNERS